EN

Hourly Weather Bonnyville

Today, 8 May, Saturday

Time Temperature Precipitation Wind Pressure Humidity
00:00 +5°C° 0 mm 6 mps 712 mmHg 48%
01:00 +5°C° 0 mm 6 mps 712 mmHg 50%
02:00 +4°C° 0 mm 6 mps 712 mmHg 51%
03:00 +5°C° 0 mm 5 mps 712 mmHg 55%
04:00 +3°C° 0 mm 5 mps 712 mmHg 58%
05:00 +3°C° 0 mm 5 mps 712 mmHg 62%
06:00 +3°C° 0 mm 5 mps 712 mmHg 61%
07:00 +3°C° 0 mm 5 mps 713 mmHg 61%
08:00 +5°C° 0 mm 5 mps 713 mmHg 60%
09:00 +5°C° 0 mm 6 mps 713 mmHg 56%
10:00 +8°C° 0 mm 6 mps 714 mmHg 51%
11:00 +9°C° 0 mm 6 mps 714 mmHg 46%
12:00 +10°C° 0 mm 6 mps 714 mmHg 42%
13:00 +11°C° 0 mm 6 mps 714 mmHg 39%
14:00 +13°C° 0 mm 6 mps 714 mmHg 35%
15:00 +13°C° 0 mm 5 mps 714 mmHg 35%
16:00 +13°C° 0 mm 5 mps 714 mmHg 35%
17:00 +13°C° 0 mm 5 mps 714 mmHg 35%
18:00 +11°C° 0 mm 4 mps 715 mmHg 40%
19:00 +10°C° 0 mm 4 mps 715 mmHg 44%
20:00 +9°C° 0 mm 3 mps 715 mmHg 49%
21:00 +8°C° 0 mm 3 mps 715 mmHg 51%
22:00 +7°C° 0 mm 3 mps 715 mmHg 53%
23:00 +5°C° 0 mm 3 mps 716 mmHg 55%

Tomorrow, 9 May, Sunday

Time Temperature Precipitation Wind Pressure Humidity
00:00 +4°C° 0 mm 3 mps 716 mmHg 57%
01:00 +4°C° 0 mm 2 mps 716 mmHg 59%
02:00 +4°C° 0 mm 2 mps 716 mmHg 60%
03:00 +3°C° 0 mm 2 mps 716 mmHg 63%
04:00 +3°C° 0 mm 2 mps 716 mmHg 66%
05:00 +2°C° 0 mm 2 mps 717 mmHg 69%
06:00 +4°C° 0 mm 2 mps 717 mmHg 63%
07:00 +6°C° 0 mm 2 mps 717 mmHg 56%
08:00 +8°C° 0 mm 2 mps 717 mmHg 50%
09:00 +10°C° 0 mm 3 mps 717 mmHg 45%
10:00 +11°C° 0 mm 3 mps 717 mmHg 40%
11:00 +13°C° 0 mm 3 mps 717 mmHg 35%
12:00 +13°C° 0 mm 3 mps 717 mmHg 33%
13:00 +14°C° 0 mm 3 mps 717 mmHg 32%
14:00 +16°C° 0 mm 3 mps 716 mmHg 30%
15:00 +16°C° 0 mm 3 mps 716 mmHg 30%
16:00 +16°C° 0 mm 3 mps 716 mmHg 30%
17:00 +16°C° 0 mm 3 mps 716 mmHg 30%
18:00 +13°C° 0 mm 3 mps 716 mmHg 37%
19:00 +11°C° 0 mm 3 mps 716 mmHg 43%
20:00 +10°C° 0 mm 3 mps 716 mmHg 49%
21:00 +9°C° 0 mm 3 mps 716 mmHg 51%
22:00 +8°C° 0 mm 3 mps 716 mmHg 53%
23:00 +5°C° 0 mm 3 mps 716 mmHg 56%

Day after tomorrow, 10 May, Monday

Time Temperature Precipitation Wind Pressure Humidity
00:00 +6°C° 0 mm 2 mps 716 mmHg 63%
01:00 +5°C° 0 mm 2 mps 716 mmHg 71%
02:00 +4°C° 0 mm 2 mps 716 mmHg 78%
03:00 +4°C° 0 mm 2 mps 716 mmHg 79%
04:00 +4°C° 0 mm 2 mps 716 mmHg 79%
05:00 +5°C° 0 mm 1 mps 717 mmHg 80%
06:00 +6°C° 0 mm 2 mps 717 mmHg 72%
07:00 +8°C° 0 mm 2 mps 717 mmHg 63%
08:00 +10°C° 0 mm 3 mps 717 mmHg 55%
09:00 +11°C° 0 mm 4 mps 717 mmHg 49%
10:00 +12°C° 0 mm 5 mps 716 mmHg 44%
11:00 +14°C° 0 mm 5 mps 716 mmHg 38%
12:00 +14°C° 0 mm 5 mps 716 mmHg 36%
13:00 +15°C° 0 mm 5 mps 716 mmHg 34%
14:00 +16°C° 0 mm 5 mps 715 mmHg 31%
15:00 +16°C° 0 mm 5 mps 715 mmHg 31%
16:00 +16°C° 0 mm 5 mps 715 mmHg 31%
17:00 +16°C° 0 mm 5 mps 714 mmHg 31%
18:00 +14°C° 0 mm 4 mps 714 mmHg 38%
19:00 +12°C° 0 mm 3 mps 714 mmHg 45%
20:00 +10°C° 0 mm 2 mps 714 mmHg 52%
21:00 +10°C° 0 mm 2 mps 714 mmHg 54%
22:00 +9°C° 0 mm 2 mps 714 mmHg 56%
23:00 +8°C° 0 mm 2 mps 714 mmHg 58%

11 May, Tuesday

Time Temperature Precipitation Wind Pressure Humidity
00:00 +7°C° 0 mm 2 mps 714 mmHg 62%
01:00 +7°C° 0 mm 2 mps 714 mmHg 65%
02:00 +7°C° 0 mm 3 mps 714 mmHg 68%
03:00 +5°C° 0 mm 3 mps 714 mmHg 68%
04:00 +6°C° 0 mm 2 mps 714 mmHg 69%
05:00 +6°C° 0 mm 2 mps 714 mmHg 69%
06:00 +8°C° 0 mm 3 mps 714 mmHg 64%
07:00 +10°C° 0 mm 3 mps 714 mmHg 59%
08:00 +11°C° 0 mm 3 mps 714 mmHg 54%
09:00 +13°C° 0 mm 4 mps 714 mmHg 49%
10:00 +15°C° 0 mm 4 mps 714 mmHg 44%
11:00 +18°C° 0 mm 4 mps 714 mmHg 39%
12:00 +18°C° 0 mm 4 mps 714 mmHg 37%
13:00 +18°C° 0 mm 4 mps 713 mmHg 36%
14:00 +19°C° 0 mm 4 mps 713 mmHg 35%
15:00 +19°C° 0 mm 4 mps 713 mmHg 34%
16:00 +19°C° 0 mm 4 mps 713 mmHg 34%
17:00 +19°C° 0 mm 4 mps 712 mmHg 33%
18:00 +18°C° 0 mm 4 mps 712 mmHg 42%
19:00 +16°C° 0 mm 3 mps 712 mmHg 50%
20:00 +14°C° 0 mm 2 mps 712 mmHg 59%
21:00 +12°C° 0.5 mm 2 mps 712 mmHg 70%
22:00 +9°C° 0.5 mm 2 mps 712 mmHg 81%
23:00 +9°C° 0.5 mm 1 mps 713 mmHg 93%

12 May, Wednesday

Time Temperature Precipitation Wind Pressure Humidity
00:00 +9°C° 0 mm 1 mps 713 mmHg 92%
01:00 +8°C° 0 mm 1 mps 713 mmHg 92%
02:00 +8°C° 0 mm 1 mps 713 mmHg 92%
03:00 +8°C° 0 mm 1 mps 713 mmHg 93%
04:00 +7°C° 0 mm 1 mps 713 mmHg 93%
05:00 +6°C° 0 mm 2 mps 713 mmHg 94%
06:00 +8°C° 0 mm 2 mps 713 mmHg 88%
07:00 +9°C° 0 mm 2 mps 713 mmHg 81%
08:00 +12°C° 0 mm 2 mps 713 mmHg 74%
09:00 +13°C° 0 mm 2 mps 713 mmHg 68%
10:00 +15°C° 0 mm 2 mps 713 mmHg 62%
11:00 +16°C° 0 mm 3 mps 713 mmHg 55%
12:00 +17°C° 0.1 mm 2 mps 712 mmHg 51%
13:00 +18°C° 0.1 mm 2 mps 712 mmHg 48%
14:00 +20°C° 0.1 mm 1 mps 712 mmHg 44%
15:00 +17°C° 0.7 mm 3 mps 711 mmHg 54%
16:00 +15°C° 0.7 mm 4 mps 711 mmHg 64%
17:00 +13°C° 0.7 mm 5 mps 711 mmHg 74%
18:00 +12°C° 0.3 mm 5 mps 711 mmHg 78%
19:00 +11°C° 0.3 mm 4 mps 710 mmHg 81%
20:00 +10°C° 0.3 mm 4 mps 710 mmHg 85%
21:00 +10°C° 0 mm 4 mps 710 mmHg 86%
22:00 +9°C° 0 mm 3 mps 710 mmHg 87%
23:00 +8°C° 0 mm 2 mps 710 mmHg 88%

13 May, Thursday

Time Temperature Precipitation Wind Pressure Humidity
00:00 +8°C° 0 mm 2 mps 710 mmHg 89%
01:00 +8°C° 0 mm 2 mps 710 mmHg 89%
02:00 +8°C° 0 mm 2 mps 710 mmHg 89%
03:00 +8°C° 0 mm 2 mps 710 mmHg 90%
04:00 +9°C° 0 mm 1 mps 710 mmHg 90%
05:00 +8°C° 0 mm 1 mps 710 mmHg 91%
06:00 +9°C° 0 mm 2 mps 710 mmHg 86%
07:00 +11°C° 0 mm 3 mps 711 mmHg 80%
08:00 +12°C° 0 mm 4 mps 711 mmHg 75%
09:00 +14°C° 0 mm 4 mps 711 mmHg 66%
10:00 +16°C° 0 mm 5 mps 711 mmHg 57%
11:00 +17°C° 0 mm 5 mps 711 mmHg 47%
12:00 +19°C° 0 mm 5 mps 711 mmHg 44%
13:00 +19°C° 0 mm 5 mps 711 mmHg 41%
14:00 +20°C° 0 mm 6 mps 711 mmHg 38%
15:00 +19°C° 0 mm 6 mps 712 mmHg 43%
16:00 +17°C° 0 mm 5 mps 712 mmHg 47%
17:00 +16°C° 0 mm 5 mps 712 mmHg 51%
18:00 +13°C° 0.1 mm 5 mps 713 mmHg 61%
19:00 +9°C° 0.1 mm 5 mps 713 mmHg 70%
20:00 +7°C° 0.1 mm 5 mps 714 mmHg 79%
21:00 +6°C° 0 mm 5 mps 714 mmHg 79%
22:00 +5°C° 0 mm 5 mps 714 mmHg 80%
23:00 +5°C° 0 mm 5 mps 715 mmHg 80%
Show more

We Need Your Consent

Meteoprog and our Service Providers may store and access personal data such as cookies, device identifiers or other similar technologies on your device and process such data to personalise content and ads, as well as provide social media features and to analyse the traffic.

  • Store and/or access information on your device

    Cookies, device identifiers or other information can be stored or accessed on your device for the purposes indicated above.

  • Personalised ads and content, ad and content measurement, audience insights, and products development

    Ads and content can be personalised based on a profile. More data can be added to better personalise ads and content. Ad and content performance can be measured. Insights about the audience who saw the ads and content can be derived. Such data can be used to develop or improve user’s experience, systems and software.

By clicking ‘I Agree’ you will allow the use of indicated cookies, device identifiers, web beacons or other similar technologies. Your settings can be changed in the browser on your device.

For certain purposes, legitimate interests may be relied on, rather than consent. You can read more about this in our Privacy and Cookie Policy.